Boundary Cnty AP, Bonners Fer, ID

4:32 PM PDT on July 20, 2017 (GMT -0700)
Boundary Cnty AP, Bonners Fer

Weather History for K65S - January, 2014

Change the Weather History Date:

Monday, January 20, 2014

  Actual Average (KSZT) Record (KSZT)
Temperature  
Mean Temperature 29 °F -  
Max Temperature 32 °F 34 °F 41 °F (2017)
Min Temperature 26 °F 21 °F 26 °F (2015)
Degree Days  
Heating Degree Days 36    
Moisture  
Dew Point 25 °F    
Average Humidity 86    
Maximum Humidity 93    
Minimum Humidity 75    
Precipitation  
Precipitation 0.00 in - - ()
Sea Level Pressure  
Sea Level Pressure 30.48 in    
Wind  
Wind Speed 1 mph (NNE)    
Max Wind Speed 7 mph    
Max Gust Speed -    
Visibility 10 miles    
Events      
Averages and records for this station are not official NWS values.
T = Trace of Precipitation, MM = Missing Value Source: NWS Daily Summary

Daily Weather History Graph

Daily Weather History Graph

Search for Another Location

Airport or City:

Trip Planner

Search our weather history database for the weather conditions in past years. The results will help you decide how hot, cold, wet, or windy it might be!

Date:

Astronomy

Jan. 20, 2014 Rise Set
Actual Time 7:28 AM PST 4:24 PM PST
Civil Twilight 6:53 AM PST 4:59 PM PST
Nautical Twilight 6:14 AM PST 5:38 PM PST
Astronomical Twilight 5:37 AM PST 6:15 PM PST
Moon 9:31 PM PST 9:05 AM PST
Length of Visible Light 10h 06m
Length of Day
8h 55m
Waning Gibbous, 82% of the Moon is Illuminated
Jan 20
Waning Gibbous
Jan 23
Last Quarter
Jan 30
New
Feb 6
First Quarter
Feb 14
Full

Hourly Weather History & Observations

Time (PST) Temp. Windchill Dew Point Humidity Pressure Visibility Wind Dir Wind Speed Gust Speed Precip Events Conditions
12:10 AM 32.0 °F - 26.6 °F 80% 30.39 in 10.0 mi Calm Calm - N/A   Overcast
12:30 AM 28.4 °F - 26.6 °F 93% 30.40 in 10.0 mi Calm Calm - N/A   Overcast
12:50 AM 30.2 °F - 26.6 °F 86% 30.41 in 10.0 mi Calm Calm - N/A   Overcast
1:10 AM 30.2 °F - 26.6 °F 86% 30.41 in 10.0 mi Calm Calm - N/A   Overcast
1:30 AM 30.2 °F - 26.6 °F 86% 30.42 in 10.0 mi Calm Calm - N/A   Overcast
1:50 AM 32.0 °F - 26.6 °F 80% 30.43 in 10.0 mi Calm Calm - N/A   Overcast
2:10 AM 30.2 °F 23.4 °F 26.6 °F 86% 30.44 in 10.0 mi NE 6.9 mph - N/A   Overcast
2:30 AM 32.0 °F - 26.6 °F 80% 30.45 in 10.0 mi Calm Calm - N/A   Overcast
2:50 AM 30.2 °F - 26.6 °F 86% 30.46 in 10.0 mi Calm Calm - N/A   Overcast
3:10 AM 32.0 °F 27.5 °F 24.8 °F 75% 30.47 in 10.0 mi NNE 4.6 mph - N/A   Overcast
3:30 AM 30.2 °F 26.7 °F 26.6 °F 86% 30.48 in 10.0 mi North 3.5 mph - N/A   Overcast
3:50 AM 30.2 °F - 26.6 °F 86% 30.48 in 10.0 mi Calm Calm - N/A   Overcast
4:10 AM 30.2 °F - 26.6 °F 86% 30.49 in 10.0 mi Calm Calm - N/A   Overcast
4:30 AM 30.2 °F - 24.8 °F 80% 30.49 in 10.0 mi Calm Calm - N/A   Overcast
4:50 AM 30.2 °F 26.7 °F 24.8 °F 80% 30.49 in 10.0 mi NE 3.5 mph - N/A   Overcast
5:15 AM 30.2 °F 25.4 °F 24.8 °F 80% 30.49 in 10.0 mi NE 4.6 mph - N/A   Overcast
5:30 AM 30.2 °F 26.7 °F 24.8 °F 80% 30.50 in 10.0 mi ENE 3.5 mph - N/A   Overcast
5:50 AM 30.2 °F - 24.8 °F 80% 30.50 in 10.0 mi Calm Calm - N/A   Overcast
6:10 AM 28.4 °F - 24.8 °F 86% 30.49 in 10.0 mi Calm Calm - N/A   Overcast
6:30 AM 28.4 °F 24.6 °F 24.8 °F 86% 30.50 in 10.0 mi ENE 3.5 mph - N/A   Overcast
6:50 AM 28.4 °F 23.3 °F 24.8 °F 86% 30.50 in 10.0 mi ENE 4.6 mph - N/A   Overcast
7:10 AM 28.4 °F 22.2 °F 24.8 °F 86% 30.51 in 10.0 mi ENE 5.8 mph - N/A   Overcast
7:30 AM 28.4 °F 24.6 °F 24.8 °F 86% 30.51 in 10.0 mi East 3.5 mph - N/A   Overcast
7:55 AM 28.4 °F - 24.8 °F 86% 30.51 in 10.0 mi Calm Calm - N/A   Overcast
8:10 AM 28.4 °F - 24.8 °F 86% 30.51 in 10.0 mi Calm Calm - N/A   Overcast
8:30 AM 28.4 °F - 24.8 °F 86% 30.52 in 10.0 mi Calm Calm - N/A   Overcast
8:50 AM 28.4 °F - 24.8 °F 86% 30.52 in 10.0 mi Calm Calm - N/A   Overcast
9:15 AM 28.4 °F - 24.8 °F 86% 30.52 in 10.0 mi Calm Calm - N/A   Overcast
9:35 AM 28.4 °F - 24.8 °F 86% 30.53 in 10.0 mi Calm Calm - N/A   Overcast
9:50 AM 28.4 °F 23.3 °F 24.8 °F 86% 30.53 in 10.0 mi ENE 4.6 mph - N/A   Overcast
10:15 AM 28.4 °F 24.6 °F 24.8 °F 86% 30.53 in 10.0 mi ESE 3.5 mph - N/A   Overcast
10:30 AM 28.4 °F 24.6 °F 24.8 °F 86% 30.52 in 10.0 mi East 3.5 mph - N/A   Overcast
10:55 AM 28.4 °F 24.6 °F 24.8 °F 86% 30.52 in 10.0 mi East 3.5 mph - N/A   Overcast
11:15 AM 28.4 °F - 24.8 °F 86% 30.51 in 10.0 mi Calm Calm - N/A   Overcast
11:35 AM 28.4 °F - 24.8 °F 86% 30.51 in 10.0 mi Calm Calm - N/A   Overcast
11:50 AM 28.4 °F - 24.8 °F 86% 30.51 in 10.0 mi Calm Calm - N/A   Overcast
12:10 PM 28.4 °F - 24.8 °F 86% 30.51 in 10.0 mi Calm Calm - N/A   Overcast
12:30 PM 28.4 °F - 24.8 °F 86% 30.50 in 10.0 mi Calm Calm - N/A   Overcast
12:50 PM 28.4 °F - 23.0 °F 80% 30.50 in 10.0 mi Calm Calm - N/A   Overcast
1:10 PM 28.4 °F - 23.0 °F 80% 30.49 in 10.0 mi Calm Calm - N/A   Overcast
1:30 PM 28.4 °F 23.3 °F 23.0 °F 80% 30.48 in 10.0 mi SSW 4.6 mph - N/A   Overcast
1:50 PM 28.4 °F - 23.0 °F 80% 30.48 in 10.0 mi Calm Calm - N/A   Overcast
2:15 PM 30.2 °F - 23.0 °F 75% 30.47 in 10.0 mi Calm Calm - N/A   Overcast
2:30 PM 28.4 °F - 24.8 °F 86% 30.47 in 10.0 mi Calm Calm - N/A   Overcast
2:55 PM 30.2 °F - 24.8 °F 80% 30.47 in 10.0 mi Calm Calm - N/A   Overcast
3:10 PM 28.4 °F - 23.0 °F 80% 30.47 in 10.0 mi Calm Calm - N/A   Overcast
3:35 PM 28.4 °F - 24.8 °F 86% 30.48 in 10.0 mi Calm Calm - N/A   Scattered Clouds
3:50 PM 28.4 °F - 24.8 °F 86% 30.47 in 10.0 mi Calm Calm - N/A   Mostly Cloudy
4:15 PM 28.4 °F - 24.8 °F 86% 30.47 in 10.0 mi Calm Calm - N/A   Mostly Cloudy
4:30 PM 28.4 °F - 24.8 °F 86% 30.47 in 10.0 mi Calm Calm - N/A   Mostly Cloudy
4:50 PM 26.6 °F - 24.8 °F 93% 30.47 in 10.0 mi Calm Calm - N/A   Partly Cloudy
5:10 PM 26.6 °F - 24.8 °F 93% 30.46 in 10.0 mi Calm Calm - N/A   Clear
5:30 PM 26.6 °F - 24.8 °F 93% 30.46 in 10.0 mi Calm Calm - N/A   Clear
5:50 PM 26.6 °F - 23.0 °F 86% 30.46 in 10.0 mi Calm Calm - N/A   Mostly Cloudy
6:10 PM 26.6 °F - 23.0 °F 86% 30.46 in 10.0 mi Calm Calm - N/A   Overcast
6:30 PM 26.6 °F - 24.8 °F 93% 30.46 in 10.0 mi Calm Calm - N/A   Overcast
6:50 PM 26.6 °F 22.6 °F 24.8 °F 93% 30.46 in 10.0 mi North 3.5 mph - N/A   Overcast
7:10 PM 28.4 °F - 24.8 °F 86% 30.47 in 10.0 mi Calm Calm - N/A   Overcast
7:30 PM 28.4 °F 23.3 °F 24.8 °F 86% 30.47 in 10.0 mi NNW 4.6 mph - N/A   Overcast
7:50 PM 28.4 °F 22.2 °F 24.8 °F 86% 30.47 in 10.0 mi NNW 5.8 mph - N/A   Overcast
8:10 PM 28.4 °F 24.6 °F 24.8 °F 86% 30.47 in 10.0 mi NNW 3.5 mph - N/A   Overcast
8:30 PM 28.4 °F 22.2 °F 24.8 °F 86% 30.46 in 10.0 mi NNW 5.8 mph - N/A   Overcast
8:50 PM 28.4 °F 24.6 °F 24.8 °F 86% 30.46 in 10.0 mi NW 3.5 mph - N/A   Overcast
9:10 PM 28.4 °F - 24.8 °F 86% 30.46 in 10.0 mi Calm Calm - N/A   Overcast
9:30 PM 28.4 °F - 24.8 °F 86% 30.46 in 10.0 mi Calm Calm - N/A   Overcast
9:50 PM 26.6 °F - 24.8 °F 93% 30.46 in 10.0 mi Calm Calm - N/A   Overcast
10:10 PM 26.6 °F 21.2 °F 24.8 °F 93% 30.46 in 10.0 mi NW 4.6 mph - N/A   Overcast
10:30 PM 26.6 °F 21.2 °F 24.8 °F 93% 30.47 in 10.0 mi NNW 4.6 mph - N/A   Overcast
10:50 PM 26.6 °F 21.2 °F 24.8 °F 93% 30.47 in 10.0 mi NNW 4.6 mph - N/A   Overcast
11:10 PM 26.6 °F 21.2 °F 24.8 °F 93% 30.47 in 10.0 mi NNW 4.6 mph - N/A   Overcast
11:30 PM 26.6 °F 21.2 °F 24.8 °F 93% 30.47 in 10.0 mi NNW 4.6 mph - N/A   Overcast
11:50 PM 26.6 °F 19.1 °F 24.8 °F 93% 30.47 in 10.0 mi NNW 6.9 mph - N/A   Overcast